contact:dominique.lefevre@mio.osupytheas.fr, maurice.libes@osupytheas.fr, didier.mallarino@osupytheas.fr
Project:EMSO http://www.emso-fr.org/EMSO-France
Depth: 2436.0 m
Title:EMSO Ligure Ouest : Data MII capteur MICROCAT
DateTime_Computer,Latitude,Longitude,Temperature,Conductivity,Pressure,DateTime_Instrument
DateTime_Computer,Latitude,Longitude,degC,S m-1,dbar,DateTime_Instrument
2022-05-27T00:02:04Z,42.805,6.029,13.3003,4.60032,2470.53,2022-5-27T02:03:45Z
2022-05-27T00:05:07Z,42.805,6.029,13.3001,4.60033,2470.544,2022-5-27T02:06:49Z
2022-05-27T00:08:10Z,42.805,6.029,13.3006,4.60033,2470.567,2022-5-27T02:09:52Z
2022-05-27T00:11:13Z,42.805,6.029,13.3007,4.60033,2470.567,2022-5-27T02:12:55Z
2022-05-27T00:14:16Z,42.805,6.029,13.3003,4.60033,2470.507,2022-5-27T02:15:58Z
2022-05-27T00:17:19Z,42.805,6.029,13.3006,4.60033,2470.53,2022-5-27T02:19:01Z
2022-05-27T00:20:22Z,42.805,6.029,13.3004,4.60033,2470.544,2022-5-27T02:22:04Z
2022-05-27T00:23:25Z,42.805,6.029,13.3006,4.60033,2470.567,2022-5-27T02:25:07Z
2022-05-27T00:26:29Z,42.805,6.029,13.3002,4.60037,2470.567,2022-5-27T02:28:10Z
2022-05-27T00:29:32Z,42.805,6.029,13.3004,4.60035,2470.553,2022-5-27T02:31:14Z
2022-05-27T00:32:35Z,42.805,6.029,13.3002,4.60033,2470.577,2022-5-27T02:34:17Z
2022-05-27T00:35:38Z,42.805,6.029,13.3000,4.60034,2470.553,2022-5-27T02:37:20Z
2022-05-27T00:38:41Z,42.805,6.029,13.3002,4.60033,2470.53,2022-5-27T02:40:23Z
2022-05-27T00:41:44Z,42.805,6.029,13.3002,4.60033,2470.544,2022-5-27T02:43:26Z
2022-05-27T00:44:47Z,42.805,6.029,13.3003,4.60034,2470.544,2022-5-27T02:46:29Z
2022-05-27T00:47:50Z,42.805,6.029,13.3005,4.60033,2470.553,2022-5-27T02:49:32Z
2022-05-27T00:50:54Z,42.805,6.029,13.3005,4.60033,2470.544,2022-5-27T02:52:35Z
2022-05-27T00:53:57Z,42.805,6.029,13.3002,4.60033,2470.544,2022-5-27T02:55:39Z
2022-05-27T00:57:00Z,42.805,6.029,13.3002,4.60036,2470.53,2022-5-27T02:58:42Z
2022-05-27T01:00:03Z,42.805,6.029,13.3000,4.60035,2470.544,2022-5-27T03:01:45Z
2022-05-27T01:03:06Z,42.805,6.029,13.3004,4.60034,2470.544,2022-5-27T03:04:48Z
2022-05-27T01:06:09Z,42.805,6.029,13.3001,4.60035,2470.53,2022-5-27T03:07:51Z
2022-05-27T01:09:12Z,42.805,6.029,13.3004,4.60039,2470.544,2022-5-27T03:10:54Z
2022-05-27T01:12:15Z,42.805,6.029,13.3003,4.60034,2470.553,2022-5-27T03:13:57Z
2022-05-27T01:15:19Z,42.805,6.029,13.3007,4.60034,2470.53,2022-5-27T03:17:00Z
2022-05-27T01:18:22Z,42.805,6.029,13.2999,4.60034,2470.553,2022-5-27T03:20:04Z
2022-05-27T01:21:25Z,42.805,6.029,13.3002,4.60033,2470.553,2022-5-27T03:23:07Z
2022-05-27T01:24:28Z,42.805,6.029,13.3004,4.60033,2470.591,2022-5-27T03:26:10Z
2022-05-27T01:27:31Z,42.805,6.029,13.3002,4.60034,2470.577,2022-5-27T03:29:13Z
2022-05-27T01:30:34Z,42.805,6.029,13.3005,4.60036,2470.53,2022-5-27T03:32:16Z
2022-05-27T01:33:37Z,42.805,6.029,13.3001,4.60034,2470.553,2022-5-27T03:35:19Z
2022-05-27T01:36:40Z,42.805,6.029,13.3001,4.60035,2470.591,2022-5-27T03:38:22Z
2022-05-27T01:39:43Z,42.805,6.029,13.3007,4.60036,2470.591,2022-5-27T03:41:25Z
2022-05-27T01:42:47Z,42.805,6.029,13.3002,4.60034,2470.614,2022-5-27T03:44:28Z
2022-05-27T01:45:50Z,42.805,6.029,13.3004,4.60034,2470.577,2022-5-27T03:47:32Z
2022-05-27T01:48:53Z,42.805,6.029,13.3004,4.60035,2470.567,2022-5-27T03:50:35Z
2022-05-27T01:51:56Z,42.805,6.029,13.3001,4.60036,2470.577,2022-5-27T03:53:38Z
2022-05-27T01:54:59Z,42.805,6.029,13.3004,4.60034,2470.6,2022-5-27T03:56:41Z
2022-05-27T01:58:02Z,42.805,6.029,13.3006,4.60036,2470.614,2022-5-27T03:59:44Z
2022-05-27T02:01:05Z,42.805,6.029,13.3005,4.60036,2470.591,2022-5-27T04:02:47Z
2022-05-27T02:04:08Z,42.805,6.029,13.3001,4.60038,2470.577,2022-5-27T04:05:50Z
2022-05-27T02:07:12Z,42.805,6.029,13.3004,4.60035,2470.577,2022-5-27T04:08:53Z
2022-05-27T02:10:15Z,42.805,6.029,13.3007,4.60035,2470.6,2022-5-27T04:11:57Z
2022-05-27T02:13:18Z,42.805,6.029,13.3006,4.60035,2470.614,2022-5-27T04:15:00Z
2022-05-27T02:16:21Z,42.805,6.029,13.3006,4.60034,2470.637,2022-5-27T04:18:03Z
2022-05-27T02:19:24Z,42.805,6.029,13.3000,4.60035,2470.614,2022-5-27T04:21:06Z
2022-05-27T02:22:27Z,42.805,6.029,13.3005,4.60035,2470.624,2022-5-27T04:24:09Z
2022-05-27T02:25:30Z,42.805,6.029,13.3004,4.60036,2470.6,2022-5-27T04:27:12Z
2022-05-27T02:28:33Z,42.805,6.029,13.3003,4.60037,2470.637,2022-5-27T04:30:15Z
2022-05-27T02:31:37Z,42.805,6.029,13.3003,4.60035,2470.624,2022-5-27T04:33:18Z
2022-05-27T02:34:40Z,42.805,6.029,13.3006,4.60035,2470.624,2022-5-27T04:36:22Z
2022-05-27T02:37:43Z,42.805,6.029,13.3007,4.60036,2470.637,2022-5-27T04:39:25Z
2022-05-27T02:40:46Z,42.805,6.029,13.3001,4.60035,2470.6,2022-5-27T04:42:28Z
2022-05-27T02:43:49Z,42.805,6.029,13.3002,4.60034,2470.633,2022-5-27T04:45:31Z
2022-05-27T02:46:52Z,42.805,6.029,13.3004,4.60036,2470.614,2022-5-27T04:48:34Z
2022-05-27T02:49:55Z,42.805,6.029,13.3005,4.60035,2470.646,2022-5-27T04:51:37Z
2022-05-27T02:52:58Z,42.805,6.029,13.3001,4.60035,2470.614,2022-5-27T04:54:40Z
2022-05-27T02:56:02Z,42.805,6.029,13.3004,4.60035,2470.624,2022-5-27T04:57:43Z
2022-05-27T02:59:05Z,42.805,6.029,13.3005,4.60034,2470.646,2022-5-27T05:00:47Z
2022-05-27T03:02:08Z,42.805,6.029,13.3006,4.60039,2470.624,2022-5-27T05:03:50Z
2022-05-27T03:05:11Z,42.805,6.029,13.3002,4.60035,2470.624,2022-5-27T05:06:53Z
2022-05-27T03:08:14Z,42.805,6.029,13.3004,4.60035,2470.646,2022-5-27T05:09:56Z
2022-05-27T03:11:17Z,42.805,6.029,13.3005,4.60034,2470.67,2022-5-27T05:12:59Z
2022-05-27T03:14:20Z,42.805,6.029,13.3009,4.60035,2470.6,2022-5-27T05:16:02Z
2022-05-27T03:17:23Z,42.805,6.029,13.3006,4.60035,2470.646,2022-5-27T05:19:05Z
2022-05-27T03:20:26Z,42.805,6.029,13.3005,4.60036,2470.661,2022-5-27T05:22:08Z
2022-05-27T03:23:30Z,42.805,6.029,13.3005,4.60035,2470.624,2022-5-27T05:25:11Z
2022-05-27T03:26:33Z,42.805,6.029,13.3001,4.60035,2470.637,2022-5-27T05:28:15Z
2022-05-27T03:29:36Z,42.805,6.029,13.3001,4.60037,2470.624,2022-5-27T05:31:18Z
2022-05-27T03:32:39Z,42.805,6.029,13.3000,4.60038,2470.684,2022-5-27T05:34:21Z
2022-05-27T03:35:42Z,42.805,6.029,13.3004,4.60033,2470.646,2022-5-27T05:37:24Z
2022-05-27T03:38:45Z,42.805,6.029,13.3007,4.60036,2470.637,2022-5-27T05:40:27Z
2022-05-27T03:41:48Z,42.805,6.029,13.3000,4.60037,2470.624,2022-5-27T05:43:30Z
2022-05-27T03:44:51Z,42.805,6.029,13.3003,4.60036,2470.67,2022-5-27T05:46:33Z
2022-05-27T03:47:55Z,42.805,6.029,13.3003,4.60035,2470.661,2022-5-27T05:49:36Z
2022-05-27T03:50:58Z,42.805,6.029,13.3004,4.60035,2470.646,2022-5-27T05:52:40Z
2022-05-27T03:54:01Z,42.805,6.029,13.3000,4.60036,2470.646,2022-5-27T05:55:43Z
2022-05-27T03:57:04Z,42.805,6.029,13.3004,4.60033,2470.624,2022-5-27T05:58:46Z
2022-05-27T04:00:07Z,42.805,6.029,13.3002,4.60036,2470.624,2022-5-27T06:01:49Z
2022-05-27T04:03:10Z,42.805,6.029,13.3001,4.60037,2470.637,2022-5-27T06:04:52Z
2022-05-27T04:06:13Z,42.805,6.029,13.3004,4.60033,2470.684,2022-5-27T06:07:55Z
2022-05-27T04:09:16Z,42.805,6.029,13.3003,4.60033,2470.693,2022-5-27T06:10:58Z
2022-05-27T04:12:20Z,42.805,6.029,13.3003,4.60034,2470.67,2022-5-27T06:14:01Z
2022-05-27T04:15:23Z,42.805,6.029,13.3005,4.60033,2470.646,2022-5-27T06:17:05Z
2022-05-27T04:18:26Z,42.805,6.029,13.3000,4.60033,2470.637,2022-5-27T06:20:08Z
2022-05-27T04:21:29Z,42.805,6.029,13.3005,4.60033,2470.67,2022-5-27T06:23:11Z
2022-05-27T04:24:32Z,42.805,6.029,13.3000,4.60034,2470.684,2022-5-27T06:26:14Z
2022-05-27T04:27:35Z,42.805,6.029,13.2999,4.60033,2470.661,2022-5-27T06:29:17Z
2022-05-27T04:30:38Z,42.805,6.029,13.3004,4.60034,2470.646,2022-5-27T06:32:20Z
2022-05-27T04:33:41Z,42.805,6.029,13.3004,4.60035,2470.684,2022-5-27T06:35:23Z
2022-05-27T04:36:45Z,42.805,6.029,13.3005,4.60034,2470.661,2022-5-27T06:38:26Z
2022-05-27T04:39:48Z,42.805,6.029,13.3003,4.60036,2470.646,2022-5-27T06:41:30Z
2022-05-27T04:42:51Z,42.805,6.029,13.3004,4.60036,2470.67,2022-5-27T06:44:33Z
2022-05-27T04:45:54Z,42.805,6.029,13.3000,4.60035,2470.661,2022-5-27T06:47:36Z
2022-05-27T04:48:57Z,42.805,6.029,13.3003,4.60034,2470.707,2022-5-27T06:50:39Z
2022-05-27T04:52:00Z,42.805,6.029,13.3006,4.60035,2470.67,2022-5-27T06:53:42Z
2022-05-27T04:55:03Z,42.805,6.029,13.3002,4.60035,2470.67,2022-5-27T06:56:45Z
2022-05-27T04:58:06Z,42.805,6.029,13.3004,4.60036,2470.684,2022-5-27T06:59:48Z
2022-05-27T05:01:10Z,42.805,6.029,13.3006,4.60037,2470.661,2022-5-27T07:02:51Z
2022-05-27T05:04:13Z,42.805,6.029,13.3003,4.60033,2470.67,2022-5-27T07:05:55Z
2022-05-27T05:07:16Z,42.805,6.029,13.3002,4.60034,2470.707,2022-5-27T07:08:58Z
2022-05-27T05:10:19Z,42.805,6.029,13.3005,4.60034,2470.67,2022-5-27T07:12:01Z
2022-05-27T05:13:22Z,42.805,6.029,13.3003,4.60033,2470.67,2022-5-27T07:15:04Z
2022-05-27T05:16:25Z,42.805,6.029,13.3006,4.60037,2470.67,2022-5-27T07:18:07Z
2022-05-27T05:19:28Z,42.805,6.029,13.3002,4.60034,2470.646,2022-5-27T07:21:10Z
2022-05-27T05:22:31Z,42.805,6.029,13.3003,4.60033,2470.684,2022-5-27T07:24:13Z
2022-05-27T05:25:34Z,42.805,6.029,13.3004,4.60033,2470.707,2022-5-27T07:27:16Z
2022-05-27T05:28:38Z,42.805,6.029,13.3004,4.60033,2470.646,2022-5-27T07:30:19Z
2022-05-27T05:31:41Z,42.805,6.029,13.3002,4.60034,2470.661,2022-5-27T07:33:23Z
2022-05-27T05:34:44Z,42.805,6.029,13.3001,4.60033,2470.67,2022-5-27T07:36:26Z
2022-05-27T05:37:47Z,42.805,6.029,13.3002,4.60033,2470.67,2022-5-27T07:39:29Z
2022-05-27T05:40:50Z,42.805,6.029,13.3004,4.60035,2470.693,2022-5-27T07:42:32Z
2022-05-27T05:43:53Z,42.805,6.029,13.3003,4.60033,2470.656,2022-5-27T07:45:35Z
2022-05-27T05:46:56Z,42.805,6.029,13.3002,4.60034,2470.684,2022-5-27T07:48:38Z
2022-05-27T05:49:59Z,42.805,6.029,13.3002,4.60034,2470.693,2022-5-27T07:51:41Z
2022-05-27T05:53:03Z,42.805,6.029,13.3002,4.60036,2470.661,2022-5-27T07:54:44Z
2022-05-27T05:56:06Z,42.805,6.029,13.3004,4.60034,2470.684,2022-5-27T07:57:48Z
2022-05-27T05:59:09Z,42.805,6.029,13.2999,4.60034,2470.693,2022-5-27T08:00:51Z
2022-05-27T06:02:12Z,42.805,6.029,13.3000,4.60036,2470.646,2022-5-27T08:03:54Z
2022-05-27T06:05:15Z,42.805,6.029,13.3004,4.60035,2470.646,2022-5-27T08:06:57Z
2022-05-27T06:08:18Z,42.805,6.029,13.3000,4.60039,2470.646,2022-5-27T08:10:00Z
2022-05-27T06:11:21Z,42.805,6.029,13.3004,4.60033,2470.684,2022-5-27T08:13:03Z
2022-05-27T06:14:25Z,42.805,6.029,13.3001,4.60034,2470.646,2022-5-27T08:16:06Z
2022-05-27T06:17:28Z,42.805,6.029,13.3004,4.60033,2470.637,2022-5-27T08:19:10Z
2022-05-27T06:20:31Z,42.805,6.029,13.3001,4.60034,2470.684,2022-5-27T08:22:13Z
2022-05-27T06:23:34Z,42.805,6.029,13.3004,4.60033,2470.67,2022-5-27T08:25:16Z
2022-05-27T06:26:37Z,42.805,6.029,13.3003,4.60033,2470.661,2022-5-27T08:28:19Z
2022-05-27T06:29:40Z,42.805,6.029,13.3004,4.60033,2470.646,2022-5-27T08:31:22Z
2022-05-27T06:32:43Z,42.805,6.029,13.3004,4.60034,2470.661,2022-5-27T08:34:25Z
2022-05-27T06:35:46Z,42.805,6.029,13.3004,4.60034,2470.637,2022-5-27T08:37:28Z
2022-05-27T06:38:50Z,42.805,6.029,13.3004,4.60033,2470.67,2022-5-27T08:40:31Z
2022-05-27T06:41:53Z,42.805,6.029,13.3003,4.60033,2470.67,2022-5-27T08:43:35Z
2022-05-27T06:44:56Z,42.805,6.029,13.3001,4.60035,2470.646,2022-5-27T08:46:38Z
2022-05-27T06:47:59Z,42.805,6.029,13.3001,4.60033,2470.637,2022-5-27T08:49:41Z
2022-05-27T06:51:02Z,42.805,6.029,13.3002,4.60035,2470.624,2022-5-27T08:52:44Z
2022-05-27T06:54:05Z,42.805,6.029,13.3006,4.60033,2470.646,2022-5-27T08:55:47Z
2022-05-27T06:57:08Z,42.805,6.029,13.3005,4.60035,2470.661,2022-5-27T08:58:50Z
2022-05-27T07:00:11Z,42.805,6.029,13.2999,4.60033,2470.646,2022-5-27T09:01:53Z
2022-05-27T07:03:14Z,42.805,6.029,13.3000,4.60033,2470.67,2022-5-27T09:04:56Z
2022-05-27T07:06:18Z,42.805,6.029,13.3004,4.60033,2470.661,2022-5-27T09:07:59Z
2022-05-27T07:09:21Z,42.805,6.029,13.3004,4.60034,2470.624,2022-5-27T09:11:03Z
2022-05-27T07:12:24Z,42.805,6.029,13.3003,4.60033,2470.67,2022-5-27T09:14:06Z
2022-05-27T07:15:27Z,42.805,6.029,13.3005,4.60033,2470.646,2022-5-27T09:17:09Z
2022-05-27T07:18:30Z,42.805,6.029,13.3001,4.60034,2470.646,2022-5-27T09:20:12Z
2022-05-27T07:21:33Z,42.805,6.029,13.3004,4.60034,2470.6,2022-5-27T09:23:15Z
2022-05-27T07:24:36Z,42.805,6.029,13.3004,4.60033,2470.6,2022-5-27T09:26:18Z
2022-05-27T07:27:39Z,42.805,6.029,13.3004,4.60033,2470.637,2022-5-27T09:29:21Z
2022-05-27T07:30:43Z,42.805,6.029,13.3004,4.60036,2470.661,2022-5-27T09:32:24Z
2022-05-27T07:33:46Z,42.805,6.029,13.3002,4.60035,2470.624,2022-5-27T09:35:28Z
2022-05-27T07:36:49Z,42.805,6.029,13.3001,4.60033,2470.624,2022-5-27T09:38:31Z
2022-05-27T07:39:52Z,42.805,6.029,13.3003,4.60033,2470.637,2022-5-27T09:41:34Z
2022-05-27T07:42:55Z,42.805,6.029,13.3004,4.60036,2470.614,2022-5-27T09:44:37Z
2022-05-27T07:45:58Z,42.805,6.029,13.3002,4.60033,2470.624,2022-5-27T09:47:40Z
2022-05-27T07:49:01Z,42.805,6.029,13.3004,4.60033,2470.637,2022-5-27T09:50:43Z
2022-05-27T07:52:04Z,42.805,6.029,13.3001,4.60034,2470.624,2022-5-27T09:53:46Z
2022-05-27T07:55:08Z,42.805,6.029,13.3004,4.60038,2470.614,2022-5-27T09:56:49Z
2022-05-27T07:58:11Z,42.805,6.029,13.2998,4.60033,2470.614,2022-5-27T09:59:53Z
2022-05-27T08:01:14Z,42.805,6.029,13.3005,4.60033,2470.614,2022-5-27T10:02:56Z
2022-05-27T08:04:17Z,42.805,6.029,13.3002,4.60033,2470.6,2022-5-27T10:05:59Z
2022-05-27T08:07:20Z,42.805,6.029,13.3002,4.60033,2470.6,2022-5-27T10:09:02Z
2022-05-27T08:10:23Z,42.805,6.029,13.3006,4.60033,2470.614,2022-5-27T10:12:05Z
2022-05-27T08:13:26Z,42.805,6.029,13.3002,4.60033,2470.591,2022-5-27T10:15:08Z
2022-05-27T08:16:29Z,42.805,6.029,13.3004,4.60033,2470.577,2022-5-27T10:18:11Z
2022-05-27T08:19:33Z,42.805,6.029,13.3002,4.60033,2470.591,2022-5-27T10:21:14Z
2022-05-27T08:22:36Z,42.805,6.029,13.3000,4.60033,2470.577,2022-5-27T10:24:18Z
2022-05-27T08:25:39Z,42.805,6.029,13.3002,4.60034,2470.577,2022-5-27T10:27:21Z
2022-05-27T08:28:42Z,42.805,6.029,13.3003,4.60033,2470.577,2022-5-27T10:30:24Z
2022-05-27T08:31:45Z,42.805,6.029,13.3000,4.60033,2470.6,2022-5-27T10:33:27Z
2022-05-27T08:34:48Z,42.805,6.029,13.3004,4.60033,2470.591,2022-5-27T10:36:30Z
2022-05-27T08:37:51Z,42.805,6.029,13.3005,4.60033,2470.553,2022-5-27T10:39:33Z
2022-05-27T08:40:54Z,42.805,6.029,13.3000,4.60034,2470.577,2022-5-27T10:42:36Z
2022-05-27T08:43:58Z,42.805,6.029,13.3004,4.60034,2470.577,2022-5-27T10:45:39Z
2022-05-27T08:47:01Z,42.805,6.029,13.3001,4.60033,2470.577,2022-5-27T10:48:43Z
2022-05-27T08:50:04Z,42.805,6.029,13.3001,4.60033,2470.577,2022-5-27T10:51:46Z
2022-05-27T08:53:07Z,42.805,6.029,13.3001,4.60032,2470.567,2022-5-27T10:54:49Z
2022-05-27T08:56:10Z,42.805,6.029,13.3004,4.60034,2470.553,2022-5-27T10:57:52Z
2022-05-27T08:59:13Z,42.805,6.029,13.3001,4.60033,2470.577,2022-5-27T11:00:55Z
2022-05-27T09:02:16Z,42.805,6.029,13.3004,4.60033,2470.591,2022-5-27T11:03:58Z
2022-05-27T09:05:19Z,42.805,6.029,13.3000,4.60033,2470.53,2022-5-27T11:07:01Z
2022-05-27T09:08:23Z,42.805,6.029,13.3000,4.60033,2470.591,2022-5-27T11:10:04Z
2022-05-27T09:11:26Z,42.805,6.029,13.3002,4.60033,2470.553,2022-5-27T11:13:08Z
2022-05-27T09:14:29Z,42.805,6.029,13.3003,4.60033,2470.53,2022-5-27T11:16:11Z
2022-05-27T09:17:32Z,42.805,6.029,13.3006,4.60033,2470.553,2022-5-27T11:19:14Z
2022-05-27T09:20:35Z,42.805,6.029,13.3004,4.60033,2470.577,2022-5-27T11:22:17Z
2022-05-27T09:23:38Z,42.805,6.029,13.3004,4.60033,2470.553,2022-5-27T11:25:20Z
2022-05-27T09:26:41Z,42.805,6.029,13.3002,4.60033,2470.577,2022-5-27T11:28:23Z
2022-05-27T09:29:44Z,42.805,6.029,13.3004,4.60034,2470.53,2022-5-27T11:31:26Z
2022-05-27T09:32:48Z,42.805,6.029,13.3005,4.60033,2470.544,2022-5-27T11:34:29Z
2022-05-27T09:35:51Z,42.805,6.029,13.3005,4.60035,2470.507,2022-5-27T11:37:33Z
2022-05-27T09:38:54Z,42.805,6.029,13.3005,4.60033,2470.483,2022-5-27T11:40:36Z
2022-05-27T09:41:57Z,42.805,6.029,13.3003,4.60036,2470.53,2022-5-27T11:43:39Z
2022-05-27T09:45:00Z,42.805,6.029,13.2998,4.60033,2470.53,2022-5-27T11:46:42Z
2022-05-27T09:48:03Z,42.805,6.029,13.3003,4.60033,2470.507,2022-5-27T11:49:45Z
2022-05-27T09:51:06Z,42.805,6.029,13.3006,4.60033,2470.553,2022-5-27T11:52:48Z
2022-05-27T09:54:09Z,42.805,6.029,13.3004,4.60034,2470.544,2022-5-27T11:55:51Z
2022-05-27T09:57:13Z,42.805,6.029,13.3000,4.60033,2470.53,2022-5-27T11:58:54Z
2022-05-27T10:00:16Z,42.805,6.029,13.3004,4.60033,2470.53,2022-5-27T12:01:58Z
2022-05-27T10:03:19Z,42.805,6.029,13.3003,4.60035,2470.52,2022-5-27T12:05:01Z
2022-05-27T10:06:22Z,42.805,6.029,13.3004,4.60033,2470.507,2022-5-27T12:08:04Z
2022-05-27T10:09:25Z,42.805,6.029,13.3002,4.60035,2470.507,2022-5-27T12:11:07Z
2022-05-27T10:12:28Z,42.805,6.029,13.3003,4.60033,2470.507,2022-5-27T12:14:10Z
2022-05-27T10:15:31Z,42.805,6.029,13.3005,4.60032,2470.507,2022-5-27T12:17:13Z
2022-05-27T10:18:34Z,42.805,6.029,13.3001,4.60033,2470.567,2022-5-27T12:20:16Z
2022-05-27T10:21:38Z,42.805,6.029,13.3001,4.60033,2470.507,2022-5-27T12:23:19Z
2022-05-27T10:24:41Z,42.805,6.029,13.3005,4.60035,2470.483,2022-5-27T12:26:23Z
2022-05-27T10:27:44Z,42.805,6.029,13.3003,4.60033,2470.497,2022-5-27T12:29:26Z
2022-05-27T10:30:47Z,42.805,6.029,13.3003,4.60033,2470.483,2022-5-27T12:32:29Z
2022-05-27T10:33:50Z,42.805,6.029,13.3001,4.60032,2470.507,2022-5-27T12:35:32Z
2022-05-27T10:36:53Z,42.805,6.029,13.3004,4.60032,2470.507,2022-5-27T12:38:35Z
2022-05-27T10:39:56Z,42.805,6.029,13.3000,4.60033,2470.507,2022-5-27T12:41:38Z
2022-05-27T10:42:59Z,42.805,6.029,13.3000,4.60033,2470.507,2022-5-27T12:44:41Z
2022-05-27T10:46:03Z,42.805,6.029,13.3002,4.60032,2470.497,2022-5-27T12:47:45Z
2022-05-27T10:49:06Z,42.805,6.029,13.3004,4.60033,2470.507,2022-5-27T12:50:48Z
2022-05-27T10:52:09Z,42.805,6.029,13.3000,4.60033,2470.483,2022-5-27T12:53:51Z
2022-05-27T10:55:12Z,42.805,6.029,13.3006,4.60033,2470.52,2022-5-27T12:56:54Z
2022-05-27T10:58:15Z,42.805,6.029,13.3006,4.60033,2470.497,2022-5-27T12:59:57Z
2022-05-27T11:01:18Z,42.805,6.029,13.3000,4.60033,2470.483,2022-5-27T13:03:00Z
2022-05-27T11:04:21Z,42.805,6.029,13.3003,4.60033,2470.483,2022-5-27T13:06:03Z
2022-05-27T11:07:24Z,42.805,6.029,13.3005,4.60033,2470.46,2022-5-27T13:09:06Z
2022-05-27T11:10:28Z,42.805,6.029,13.3004,4.60033,2470.483,2022-5-27T13:12:10Z
2022-05-27T11:13:31Z,42.805,6.029,13.3002,4.60033,2470.52,2022-5-27T13:15:13Z
2022-05-27T11:16:34Z,42.805,6.029,13.3006,4.60036,2470.483,2022-5-27T13:18:16Z
2022-05-27T11:19:37Z,42.805,6.029,13.3005,4.60032,2470.474,2022-5-27T13:21:19Z
2022-05-27T11:22:40Z,42.805,6.029,13.3003,4.60033,2470.507,2022-5-27T13:24:22Z
2022-05-27T11:25:43Z,42.805,6.029,13.3005,4.60034,2470.52,2022-5-27T13:27:25Z
2022-05-27T11:28:46Z,42.805,6.029,13.3004,4.60034,2470.46,2022-5-27T13:30:28Z
2022-05-27T11:31:50Z,42.805,6.029,13.3004,4.60032,2470.507,2022-5-27T13:33:31Z
2022-05-27T11:34:53Z,42.805,6.029,13.3000,4.60033,2470.497,2022-5-27T13:36:35Z
2022-05-27T11:37:56Z,42.805,6.029,13.3001,4.60033,2470.46,2022-5-27T13:39:38Z
2022-05-27T11:40:59Z,42.805,6.029,13.3006,4.60032,2470.483,2022-5-27T13:42:41Z
2022-05-27T11:44:02Z,42.805,6.029,13.3001,4.60032,2470.483,2022-5-27T13:45:44Z
2022-05-27T11:47:05Z,42.805,6.029,13.3001,4.60032,2470.474,2022-5-27T13:48:47Z
2022-05-27T11:50:08Z,42.805,6.029,13.3002,4.60033,2470.483,2022-5-27T13:51:50Z
2022-05-27T11:53:11Z,42.805,6.029,13.3000,4.60034,2470.483,2022-5-27T13:54:53Z
2022-05-27T11:56:15Z,42.805,6.029,13.3003,4.60035,2470.483,2022-5-27T13:57:56Z
2022-05-27T11:59:18Z,42.805,6.029,13.3006,4.60032,2470.483,2022-5-27T14:01:00Z
2022-05-27T12:02:21Z,42.805,6.029,13.2999,4.60033,2470.483,2022-5-27T14:04:03Z
2022-05-27T12:05:24Z,42.805,6.029,13.3005,4.60032,2470.497,2022-5-27T14:07:06Z
2022-05-27T12:08:27Z,42.805,6.029,13.3002,4.60033,2470.474,2022-5-27T14:10:09Z
2022-05-27T12:11:30Z,42.805,6.029,13.3001,4.60034,2470.46,2022-5-27T14:13:12Z
2022-05-27T12:14:33Z,42.805,6.029,13.3003,4.60033,2470.46,2022-5-27T14:16:15Z
2022-05-27T12:17:36Z,42.805,6.029,13.3004,4.60033,2470.474,2022-5-27T14:19:18Z
2022-05-27T12:20:40Z,42.805,6.029,13.3003,4.60033,2470.474,2022-5-27T14:22:21Z
2022-05-27T12:23:43Z,42.805,6.029,13.3002,4.60033,2470.497,2022-5-27T14:25:25Z
2022-05-27T12:26:46Z,42.805,6.029,13.2999,4.60032,2470.483,2022-5-27T14:28:28Z
2022-05-27T12:29:49Z,42.805,6.029,13.3009,4.60040,2470.483,2022-5-27T14:31:31Z
2022-05-27T12:32:52Z,42.805,6.029,13.3004,4.60033,2470.52,2022-5-27T14:34:34Z
2022-05-27T12:35:55Z,42.805,6.029,13.3005,4.60032,2470.46,2022-5-27T14:37:37Z
2022-05-27T12:38:58Z,42.805,6.029,13.3003,4.60033,2470.483,2022-5-27T14:40:40Z
2022-05-27T12:42:01Z,42.805,6.029,13.3000,4.60033,2470.497,2022-5-27T14:43:43Z
2022-05-27T12:45:05Z,42.805,6.029,13.3004,4.60040,2470.497,2022-5-27T14:46:46Z
2022-05-27T12:48:08Z,42.805,6.029,13.3004,4.60033,2470.483,2022-5-27T14:49:50Z
2022-05-27T12:51:11Z,42.805,6.029,13.3000,4.60034,2470.483,2022-5-27T14:52:53Z
2022-05-27T12:54:14Z,42.805,6.029,13.3008,4.60038,2470.507,2022-5-27T14:55:56Z
2022-05-27T12:57:17Z,42.805,6.029,13.3005,4.60033,2470.507,2022-5-27T14:58:59Z
2022-05-27T13:00:20Z,42.805,6.029,13.3003,4.60033,2470.483,2022-5-27T15:02:02Z
2022-05-27T13:03:23Z,42.805,6.029,13.3001,4.60033,2470.483,2022-5-27T15:05:05Z
2022-05-27T13:06:26Z,42.805,6.029,13.3001,4.60033,2470.483,2022-5-27T15:08:08Z
2022-05-27T13:09:30Z,42.805,6.029,13.3003,4.60033,2470.497,2022-5-27T15:11:11Z
2022-05-27T13:12:33Z,42.805,6.029,13.3002,4.60033,2470.507,2022-5-27T15:14:15Z
2022-05-27T13:15:36Z,42.805,6.029,13.3003,4.60033,2470.483,2022-5-27T15:17:18Z
2022-05-27T13:18:39Z,42.805,6.029,13.3001,4.60034,2470.483,2022-5-27T15:20:21Z
2022-05-27T13:21:42Z,42.805,6.029,13.3006,4.60036,2470.52,2022-5-27T15:23:24Z
2022-05-27T13:24:45Z,42.805,6.029,13.3006,4.60033,2470.507,2022-5-27T15:26:27Z
2022-05-27T13:27:48Z,42.805,6.029,13.3003,4.60033,2470.507,2022-5-27T15:29:30Z
2022-05-27T13:30:51Z,42.805,6.029,13.3000,4.60034,2470.52,2022-5-27T15:32:33Z
2022-05-27T13:33:55Z,42.805,6.029,13.3005,4.60033,2470.52,2022-5-27T15:35:36Z
2022-05-27T13:36:58Z,42.805,6.029,13.3004,4.60033,2470.483,2022-5-27T15:38:40Z
2022-05-27T13:40:01Z,42.805,6.029,13.3004,4.60036,2470.507,2022-5-27T15:41:43Z
2022-05-27T13:43:04Z,42.805,6.029,13.3004,4.60036,2470.507,2022-5-27T15:44:46Z
2022-05-27T13:46:07Z,42.805,6.029,13.3004,4.60033,2470.507,2022-5-27T15:47:49Z
2022-05-27T13:49:10Z,42.805,6.029,13.3003,4.60033,2470.52,2022-5-27T15:50:52Z
2022-05-27T13:52:13Z,42.805,6.029,13.3004,4.60034,2470.544,2022-5-27T15:53:55Z
2022-05-27T13:55:16Z,42.805,6.029,13.3004,4.60035,2470.507,2022-5-27T15:56:58Z
2022-05-27T13:58:20Z,42.805,6.029,13.3009,4.60041,2470.507,2022-5-27T16:00:01Z
2022-05-27T14:01:23Z,42.805,6.029,13.3022,4.60044,2470.507,2022-5-27T16:03:05Z
2022-05-27T14:04:26Z,42.805,6.029,13.3013,4.60040,2470.53,2022-5-27T16:06:08Z
2022-05-27T14:07:29Z,42.805,6.029,13.3009,4.60036,2470.507,2022-5-27T16:09:11Z
2022-05-27T14:10:32Z,42.805,6.029,13.3004,4.60034,2470.52,2022-5-27T16:12:14Z
2022-05-27T14:13:35Z,42.805,6.029,13.3006,4.60035,2470.53,2022-5-27T16:15:17Z
2022-05-27T14:16:38Z,42.805,6.029,13.3001,4.60034,2470.53,2022-5-27T16:18:20Z
2022-05-27T14:19:41Z,42.805,6.029,13.3007,4.60044,2470.53,2022-5-27T16:21:23Z
2022-05-27T14:22:45Z,42.805,6.029,13.3005,4.60035,2470.53,2022-5-27T16:24:26Z
2022-05-27T14:25:48Z,42.805,6.029,13.3019,4.60054,2470.553,2022-5-27T16:27:30Z
2022-05-27T14:28:51Z,42.805,6.029,13.3025,4.60046,2470.553,2022-5-27T16:30:33Z
2022-05-27T14:31:54Z,42.805,6.029,13.3000,4.60033,2470.544,2022-5-27T16:33:36Z
2022-05-27T14:34:57Z,42.805,6.029,13.3004,4.60033,2470.53,2022-5-27T16:36:39Z
2022-05-27T14:38:00Z,42.805,6.029,13.3004,4.60033,2470.553,2022-5-27T16:39:42Z
2022-05-27T14:41:03Z,42.805,6.029,13.3004,4.60034,2470.53,2022-5-27T16:42:45Z
2022-05-27T14:44:06Z,42.805,6.029,13.3016,4.60042,2470.577,2022-5-27T16:45:48Z
2022-05-27T14:47:10Z,42.805,6.029,13.3011,4.60035,2470.577,2022-5-27T16:48:51Z
2022-05-27T14:50:13Z,42.805,6.029,13.3010,4.60036,2470.567,2022-5-27T16:51:55Z
2022-05-27T14:53:16Z,42.805,6.029,13.3002,4.60033,2470.553,2022-5-27T16:54:58Z
2022-05-27T14:56:19Z,42.805,6.029,13.3001,4.60033,2470.553,2022-5-27T16:58:01Z
2022-05-27T14:59:22Z,42.805,6.029,13.3000,4.60031,2470.553,2022-5-27T17:01:04Z
2022-05-27T15:02:25Z,42.805,6.029,13.3006,4.60033,2470.577,2022-5-27T17:04:07Z
2022-05-27T15:05:28Z,42.805,6.029,13.3002,4.60033,2470.553,2022-5-27T17:07:10Z
2022-05-27T15:08:31Z,42.805,6.029,13.3007,4.60034,2470.591,2022-5-27T17:10:13Z
2022-05-27T15:11:35Z,42.805,6.029,13.3008,4.60038,2470.567,2022-5-27T17:13:16Z